Regional Weather Roundup
Issued by NWS Sterling, VA

Home | Current Version | Previous Version | Graphics & Text | Print | Product List | Glossary On
Versions: 1 2 3 4 5 6 7 8 9 10 11 12 13 14 15 16 17 18 19 20 21 22 23 24 25 26 27
000
ASUS41 KLWX 171410
RWRLWX

REGIONAL WEATHER ROUNDUP
NATIONAL WEATHER SERVICE BALTIMORE MD/WASHINGTON DC
900 AM EST SAT FEB 17 2018

Note: "FAIR" indicates few or no clouds below 12,000 feet
with no significant weather and/or obstructions to visibility.
 TC=TEMPERATURE CELSIUS

 * =Non NWS site. Station does not report precipitation (e.g. rain,
    snow, etc.), thunder, or fog.

DCZ001-MDZ009-015-VAZ040>042-051-053>054-171500-
WASHINGTON METRO

CITY           SKY/WX    TMP DP  RH WIND       PRES   REMARKS
WASHINGTON NAT PTSUNNY   37  23  56 NE10      30.39F WCI  30
DULLES         PTSUNNY   35  22  58 E10       30.37S WCI  27
ANDREWS AFB    FAIR      35  23  60 E8        30.36F WCI  29
FT BELVOIR     FAIR      38  22  53 NE5       30.38F WCI  34
QUANTICO       FAIR      38  26  62 E9        30.40S WCI  31
COLLEGE PARK*  FAIR      35  22  58 NE6       30.38F WCI  30
LEESBURG*      FAIR      34  27  75 SE3       30.38R
MANASSAS*      FAIR      36  23  59 E6        30.38F WCI  31
GAITHERSBURG*  FAIR      33  21  61 VRB5      30.37R WCI  29

$$

MDZ006>007-011-014-171500-
BALTIMORE METRO

CITY           SKY/WX    TMP DP  RH WIND       PRES   REMARKS
BWI AIRPORT    PTSUNNY   35  23  61 E10       30.38R WCI  27
MD SCIENCE CTR   N/A     36  21  54 MISG      30.41R
MARTIN STATE   MOSUNNY   36  27  69 N8        30.40F WCI  29
ANNAPOLIS      FAIR      38  24  57 E13       30.39R WCI  30
FORT MEADE*    FAIR      34  25  69 E7        30.40F WCI  28

$$

MDZ012-015-019>023-171500-
MARYLAND EASTERN SHORE

CITY           SKY/WX    TMP DP  RH WIND       PRES   REMARKS
OCEAN CITY     FAIR      39  24  55 NE12      30.40S WCI  32
SALISBURY      FAIR      38  25  59 NE12      30.39S WCI  30
BAY BRIDGE AP* FAIR      37  23  56 E12       30.40S WCI  30
CAMBRIDGE*     SUNNY     37  25  60 VRB7      30.39F WCI  32
EASTON*        SUNNY     37  25  60 E6        30.43R WCI  33

$$

MDZ017>025-171500-
SOUTHERN MARYLAND

CITY           SKY/WX    TMP DP  RH WIND       PRES   REMARKS
PATUXENT RIVER FAIR      39  28  64 NE9       30.39R WCI  33
ST INIGOES     FAIR      39  25  57 NE12G18   30.39R WCI  32
LEONARDTOWN*   FAIR      37  27  65 NE7       30.39F WCI  32

$$

MDZ003>005-171500-
NORTH CENTRAL MARYLAND

CITY           SKY/WX    TMP DP  RH WIND       PRES   REMARKS
FREDERICK*     SUNNY     34  19  55 NE7       30.40S WCI  28
HAGERSTOWN APT FAIR      32  20  61 NE8       30.32F WCI  25
WESTMINSTER*   FAIR      30  23  74 NE8       30.33S WCI  23

$$

MDZ501>502-171500-
WESTERN MARYLAND

CITY           SKY/WX    TMP DP  RH WIND       PRES   REMARKS
OAKLAND*         N/A     23  23 100 SE8       30.13F WCI  14
CUMBERLAND*    FAIR      34  27  75 CALM      30.34F

$$

VAZ025>031-171500-
SHENANDOAH VALLEY

CITY           SKY/WX    TMP DP  RH WIND       PRES   REMARKS
WINCHESTER*    FAIR      30  21  69 E5        30.35S WCI  25
FRONT ROYAL*   FAIR      32  25  74 NE5       30.33S WCI  27
LURAY*         FAIR      32  27  80 NE5       30.31S WCI  27
NEW MARKET*    FAIR      32  24  71 CALM      30.30F
STAUNTON*      FAIR      33  26  77 SE6       30.31S WCI  27
WAYNESBORO*    CLOUDY    32  26  80 SE10G17   30.29S WCI  23

$$

WVZ021-048>050-054>055-171500-
EASTERN WEST VIRGINIA PANHANDLE

CITY           SKY/WX    TMP DP  RH WIND       PRES   REMARKS
MARTINSBURG    FAIR      31  21  66 NE5       30.33S WCI  26
PETERSBURG*    FAIR      31  24  77 CALM      30.29F

$$

VAZ036>039-050-171500-
CENTRAL FOOTHILLS

CITY           SKY/WX    TMP DP  RH WIND       PRES   REMARKS
CHARLOTTESVILL FAIR      37  24  59 NE9       30.37R WCI  30
CULPEPER*      FAIR      35  23  62 CALM      30.39R
ORANGE*        PTSUNNY   34  27  75 CALM      30.37S
GORDONSVILLE*  PTSUNNY   34  26  75 CALM      30.37S
WARRENTON*     FAIR      36  22  56 E3        30.37S

$$

VAZ055>057-171500-
NORTH AND CENTRAL PIEDMONT

CITY           SKY/WX    TMP DP  RH WIND       PRES   REMARKS
FREDERICKSBRG* FAIR      38  27  64 E7        30.37F WCI  32
STAFFORD*      FAIR      38  27  64 E10       30.42S WCI  30

$$

NCZ024-NYZ072-PAZ021-071-VAZ022-071-171500-
OTHER REGIONAL OBSERVATIONS

CITY           SKY/WX    TMP DP  RH WIND       PRES   REMARKS
NEW YORK CITY  FAIR      32  16  51 CALM      30.44S
PHILADELPHIA   PTSUNNY   32  15  49 NE9       30.41S WCI  24
PITTSBURGH     CLOUDY    28  20  71 E7        30.22F WCI  21
ROANOKE        CLOUDY    39  31  72 SE9       30.31S WCI  33
RICHMOND       PTSUNNY   40  27  59 NE13      30.37S WCI  32
RALEIGH        CLOUDY    44  33  65 E10       30.31R

$$

ANZ530>537-171500-
MARINE OBSERVATIONS

STATION/POSITION TIME  TEMP    WIND        PRES
                       AIR SEA DIR/SP/G
                 (UTC) (F)     (DEG/KT/KT) (MB)
THOMAS PT LIGHT  1400   35 37   80/  7/  8   N/A
BALT KEY BRIDGE  1348   34      70/  6/  7 1029.3R
COVE POINT       1348   36      80/ 10/ 15 1029.8R
LEWISETTA        1348   38 44   80/ 11/ 13 1029.3R
SOLOMONS ISLAND  1348   37 40   60/ 10/ 16 1028.7F

$$





USA.gov is the U.S. government's official web portal to all federal, state and local government web resources and services.